When you browse on this site, cookies collect data to enhance your experience and personalize the content and advertising you see.
Visit our Privacy Policy to learn more. By continuing to use the site, you agree to this use of cookies and data.
  • In United Kingdom
  • List of Countries
  • For 7 days
  • Water Temperature
  • Weather Map
  • Weather Widgets
  • user-avatar
    Login

    Hourly Weather Acaxochitlan

    Today, 25 August, Sunday

    Time Temperature Precipitation Wind Pressure Humidity
    00:00 +15°C° 0 mm 1 mps 588 mmHg 89%
    01:00 +15°C° 0 mm 1 mps 588 mmHg 88%
    02:00 +14°C° 0 mm 1 mps 588 mmHg 88%
    03:00 +14°C° 0.1 mm 1 mps 588 mmHg 87%
    04:00 +14°C° 0.1 mm 1 mps 587 mmHg 87%
    05:00 +14°C° 0.1 mm 1 mps 587 mmHg 87%
    06:00 +16°C° 0 mm 1 mps 589 mmHg 81%
    07:00 +19°C° 0 mm 1 mps 590 mmHg 75%
    08:00 +19°C° 0 mm 0 mps 591 mmHg 70%
    09:00 +22°C° 0 mm 1 mps 591 mmHg 65%
    10:00 +24°C° 0 mm 1 mps 592 mmHg 61%
    11:00 +25°C° 0 mm 2 mps 592 mmHg 56%
    12:00 +24°C° 1.1 mm 2 mps 591 mmHg 65%
    13:00 +23°C° 1.1 mm 2 mps 590 mmHg 73%
    14:00 +21°C° 1.1 mm 2 mps 589 mmHg 82%
    15:00 +21°C° 1.3 mm 1 mps 588 mmHg 85%
    16:00 +21°C° 1.3 mm 1 mps 588 mmHg 88%
    17:00 +20°C° 1.3 mm 1 mps 588 mmHg 90%
    18:00 +19°C° 0.8 mm 1 mps 588 mmHg 91%
    19:00 +18°C° 0.8 mm 1 mps 588 mmHg 92%
    20:00 +16°C° 0.8 mm 1 mps 588 mmHg 93%
    21:00 +16°C° 0.1 mm 1 mps 588 mmHg 91%
    22:00 +16°C° 0.1 mm 1 mps 588 mmHg 88%
    23:00 +15°C° 0.1 mm 1 mps 587 mmHg 85%

    Tomorrow, 26 August, Monday

    Time Temperature Precipitation Wind Pressure Humidity
    00:00 +15°C° 0 mm 2 mps 587 mmHg 85%
    01:00 +15°C° 0 mm 2 mps 587 mmHg 85%
    02:00 +14°C° 0 mm 2 mps 586 mmHg 85%
    03:00 +14°C° 0.1 mm 2 mps 586 mmHg 85%
    04:00 +14°C° 0.1 mm 2 mps 586 mmHg 84%
    05:00 +14°C° 0.1 mm 2 mps 586 mmHg 84%
    06:00 +16°C° 0 mm 1 mps 588 mmHg 77%
    07:00 +19°C° 0 mm 1 mps 589 mmHg 71%
    08:00 +20°C° 0 mm 0 mps 590 mmHg 65%
    09:00 +23°C° 0.1 mm 1 mps 590 mmHg 63%
    10:00 +24°C° 0.1 mm 1 mps 591 mmHg 61%
    11:00 +25°C° 0.1 mm 2 mps 591 mmHg 59%
    12:00 +24°C° 0.8 mm 2 mps 590 mmHg 66%
    13:00 +23°C° 0.8 mm 2 mps 589 mmHg 72%
    14:00 +21°C° 0.8 mm 2 mps 588 mmHg 78%
    15:00 +21°C° 0.5 mm 2 mps 588 mmHg 81%
    16:00 +20°C° 0.5 mm 2 mps 587 mmHg 84%
    17:00 +19°C° 0.5 mm 2 mps 587 mmHg 87%
    18:00 +19°C° 0.1 mm 1 mps 587 mmHg 90%
    19:00 +18°C° 0.1 mm 1 mps 587 mmHg 93%
    20:00 +16°C° 0.1 mm 1 mps 587 mmHg 95%
    21:00 +15°C° 0 mm 1 mps 587 mmHg 93%
    22:00 +15°C° 0 mm 1 mps 587 mmHg 91%
    23:00 +15°C° 0 mm 1 mps 587 mmHg 89%

    Day after tomorrow, 27 August, Tuesday

    Time Temperature Precipitation Wind Pressure Humidity
    00:00 +14°C° 0 mm 1 mps 587 mmHg 88%
    01:00 +14°C° 0 mm 1 mps 586 mmHg 87%
    02:00 +14°C° 0 mm 1 mps 586 mmHg 86%
    03:00 +14°C° 0 mm 1 mps 586 mmHg 86%
    04:00 +14°C° 0 mm 1 mps 586 mmHg 86%
    05:00 +13°C° 0 mm 1 mps 586 mmHg 87%
    06:00 +15°C° 0 mm 1 mps 588 mmHg 81%
    07:00 +18°C° 0 mm 1 mps 589 mmHg 75%
    08:00 +20°C° 0 mm 1 mps 590 mmHg 69%
    09:00 +21°C° 0.1 mm 1 mps 590 mmHg 67%
    10:00 +21°C° 0.1 mm 2 mps 591 mmHg 65%
    11:00 +23°C° 0.1 mm 2 mps 591 mmHg 63%
    12:00 +23°C° 1.2 mm 2 mps 590 mmHg 70%
    13:00 +21°C° 1.2 mm 2 mps 589 mmHg 77%
    14:00 +20°C° 1.2 mm 2 mps 588 mmHg 84%
    15:00 +19°C° 0.7 mm 2 mps 588 mmHg 86%
    16:00 +20°C° 0.7 mm 1 mps 588 mmHg 89%
    17:00 +19°C° 0.7 mm 1 mps 587 mmHg 91%
    18:00 +18°C° 0.4 mm 1 mps 588 mmHg 92%
    19:00 +16°C° 0.4 mm 1 mps 588 mmHg 94%
    20:00 +15°C° 0.4 mm 1 mps 588 mmHg 95%
    21:00 +15°C° 0.3 mm 1 mps 588 mmHg 95%
    22:00 +14°C° 0.3 mm 1 mps 588 mmHg 94%
    23:00 +14°C° 0.3 mm 1 mps 588 mmHg 93%

    28 August, Wednesday

    Time Temperature Precipitation Wind Pressure Humidity
    00:00 +14°C° 0.1 mm 1 mps 588 mmHg 93%
    01:00 +14°C° 0.1 mm 1 mps 588 mmHg 92%
    02:00 +13°C° 0.1 mm 1 mps 588 mmHg 92%
    03:00 +13°C° 0.1 mm 1 mps 588 mmHg 91%
    04:00 +13°C° 0.1 mm 1 mps 588 mmHg 91%
    05:00 +13°C° 0.1 mm 1 mps 588 mmHg 91%
    06:00 +15°C° 0 mm 1 mps 589 mmHg 85%
    07:00 +18°C° 0 mm 1 mps 591 mmHg 80%
    08:00 +20°C° 0 mm 1 mps 592 mmHg 75%
    09:00 +21°C° 0 mm 1 mps 592 mmHg 72%
    10:00 +21°C° 0 mm 2 mps 592 mmHg 69%
    11:00 +22°C° 0 mm 3 mps 592 mmHg 67%
    12:00 +22°C° 0.2 mm 3 mps 591 mmHg 68%
    13:00 +21°C° 0.2 mm 3 mps 591 mmHg 70%
    14:00 +21°C° 0.2 mm 3 mps 590 mmHg 72%
    15:00 +20°C° 0.3 mm 3 mps 590 mmHg 77%
    16:00 +18°C° 0.3 mm 2 mps 589 mmHg 82%
    17:00 +17°C° 0.3 mm 2 mps 589 mmHg 87%
    18:00 +16°C° 0.1 mm 2 mps 589 mmHg 91%
    19:00 +15°C° 0.1 mm 1 mps 589 mmHg 94%
    20:00 +14°C° 0.1 mm 1 mps 589 mmHg 97%
    21:00 +14°C° 0 mm 1 mps 589 mmHg 96%
    22:00 +14°C° 0 mm 1 mps 590 mmHg 96%
    23:00 +13°C° 0 mm 0 mps 590 mmHg 95%

    29 August, Thursday

    Time Temperature Precipitation Wind Pressure Humidity
    00:00 +13°C° 0 mm 0 mps 589 mmHg 94%
    01:00 +13°C° 0 mm 0 mps 589 mmHg 94%
    02:00 +14°C° 0 mm 1 mps 589 mmHg 93%
    03:00 +13°C° 0 mm 1 mps 589 mmHg 93%
    04:00 +12°C° 0 mm 1 mps 588 mmHg 93%
    05:00 +11°C° 0 mm 1 mps 588 mmHg 93%
    06:00 +14°C° 0 mm 1 mps 590 mmHg 83%
    07:00 +16°C° 0 mm 1 mps 591 mmHg 74%
    08:00 +17°C° 0 mm 0 mps 592 mmHg 64%
    09:00 +21°C° 0 mm 1 mps 592 mmHg 61%
    10:00 +21°C° 0 mm 2 mps 593 mmHg 58%
    11:00 +22°C° 0 mm 3 mps 593 mmHg 54%
    12:00 +21°C° 0.1 mm 3 mps 592 mmHg 62%
    13:00 +21°C° 0.1 mm 3 mps 591 mmHg 69%
    14:00 +20°C° 0.1 mm 3 mps 590 mmHg 77%
    15:00 +19°C° 0.2 mm 3 mps 590 mmHg 81%
    16:00 +18°C° 0.2 mm 2 mps 589 mmHg 85%
    17:00 +17°C° 0.2 mm 2 mps 589 mmHg 89%
    18:00 +16°C° 0.1 mm 1 mps 589 mmHg 91%
    19:00 +15°C° 0.1 mm 1 mps 590 mmHg 93%
    20:00 +14°C° 0.1 mm 1 mps 590 mmHg 96%
    21:00 +14°C° 0 mm 1 mps 590 mmHg 95%
    22:00 +14°C° 0 mm 1 mps 589 mmHg 95%
    23:00 +13°C° 0 mm 1 mps 589 mmHg 94%

    30 August, Friday

    Time Temperature Precipitation Wind Pressure Humidity
    00:00 +12°C° 0 mm 1 mps 589 mmHg 92%
    01:00 +12°C° 0 mm 1 mps 588 mmHg 91%
    02:00 +10°C° 0 mm 2 mps 587 mmHg 89%
    03:00 +10°C° 0 mm 2 mps 587 mmHg 85%
    04:00 +10°C° 0 mm 2 mps 587 mmHg 81%
    05:00 +10°C° 0 mm 2 mps 587 mmHg 77%
    06:00 +13°C° 0 mm 1 mps 589 mmHg 67%
    07:00 +16°C° 0 mm 1 mps 590 mmHg 58%
    08:00 +18°C° 0 mm 0 mps 592 mmHg 48%
    09:00 +21°C° 0 mm 1 mps 592 mmHg 47%
    10:00 +21°C° 0 mm 2 mps 592 mmHg 47%
    11:00 +22°C° 0 mm 3 mps 592 mmHg 46%
    12:00 +22°C° 0 mm 3 mps 591 mmHg 51%
    13:00 +21°C° 0 mm 3 mps 591 mmHg 56%
    14:00 +21°C° 0 mm 4 mps 590 mmHg 60%
    15:00 +20°C° 0 mm 3 mps 590 mmHg 66%
    16:00 +19°C° 0 mm 3 mps 589 mmHg 72%
    17:00 +17°C° 0 mm 2 mps 589 mmHg 78%
    18:00 +16°C° 0 mm 2 mps 589 mmHg 82%
    19:00 +14°C° 0 mm 1 mps 588 mmHg 87%
    20:00 +13°C° 0 mm 1 mps 588 mmHg 91%
    21:00 +12°C° 0 mm 1 mps 588 mmHg 84%
    22:00 +12°C° 0 mm 1 mps 588 mmHg 76%
    23:00 +12°C° 0 mm 1 mps 588 mmHg 68%
    Show more